Time,TemperatureF,DewpointF,PressureIn,WindDirection,WindDirectionDegrees,WindSpeedMPH,WindSpeedGustMPH,Humidity,HourlyPrecipIn,Conditions,Clouds,dailyrainin,SoftwareType,DateUTC
2013-09-15 00:11:00,54.2,50.0,30.06,WNW,288,3.0,6.0,86,0.00,,,0.00,weatherlink.com 1.10,2013-09-15 04:11:00,
2013-09-15 00:27:00,53.4,50.0,30.06,ESE,112,0.0,6.0,87,0.00,,,0.00,weatherlink.com 1.10,2013-09-15 04:27:00,
2013-09-15 00:42:00,52.9,50.0,30.07,WNW,300,1.0,3.0,88,0.00,,,0.00,weatherlink.com 1.10,2013-09-15 04:42:00,
2013-09-15 00:57:00,52.5,49.0,30.07,NW,311,1.0,5.0,89,0.00,,,0.00,weatherlink.com 1.10,2013-09-15 04:57:00,
2013-09-15 01:12:00,52.7,50.0,30.08,WNW,293,4.0,8.0,89,0.00,,,0.00,weatherlink.com 1.10,2013-09-15 05:12:00,
2013-09-15 01:27:00,52.5,49.0,30.08,East,79,2.0,7.0,89,0.00,,,0.00,weatherlink.com 1.10,2013-09-15 05:27:00,
2013-09-15 01:42:00,52.2,49.0,30.08,NW,321,5.0,6.0,90,0.00,,,0.00,weatherlink.com 1.10,2013-09-15 05:42:00,
2013-09-15 01:57:00,52.1,49.0,30.08,West,276,1.0,8.0,90,0.00,,,0.00,weatherlink.com 1.10,2013-09-15 05:57:00,
2013-09-15 02:12:00,51.9,49.0,30.08,NNE,15,1.0,8.0,90,0.00,,,0.00,weatherlink.com 1.10,2013-09-15 06:12:00,
2013-09-15 02:27:00,51.8,49.0,30.08,NW,312,3.0,9.0,90,0.00,,,0.00,weatherlink.com 1.10,2013-09-15 06:27:00,
2013-09-15 02:42:00,51.5,49.0,30.08,North,6,3.0,9.0,90,0.00,,,0.00,weatherlink.com 1.10,2013-09-15 06:42:00,
2013-09-15 02:57:00,51.4,49.0,30.09,West,276,1.0,8.0,90,0.00,,,0.00,weatherlink.com 1.10,2013-09-15 06:57:00,
2013-09-15 03:12:00,51.2,48.0,30.08,NW,316,3.0,9.0,90,0.00,,,0.00,weatherlink.com 1.10,2013-09-15 07:12:00,
2013-09-15 03:27:00,50.8,48.0,30.09,WNW,288,4.0,8.0,91,0.00,,,0.00,weatherlink.com 1.10,2013-09-15 07:27:00,
2013-09-15 03:42:00,50.6,48.0,30.09,NW,323,4.0,8.0,91,0.00,,,0.00,weatherlink.com 1.10,2013-09-15 07:42:00,
2013-09-15 03:57:00,50.5,48.0,30.09,West,262,3.0,7.0,91,0.00,,,0.00,weatherlink.com 1.10,2013-09-15 07:57:00,
2013-09-15 04:12:00,50.3,48.0,30.10,WNW,295,7.0,7.0,91,0.00,,,0.00,weatherlink.com 1.10,2013-09-15 08:12:00,
2013-09-15 04:27:00,50.3,48.0,30.10,West,262,3.0,9.0,91,0.00,,,0.00,weatherlink.com 1.10,2013-09-15 08:27:00,
2013-09-15 04:42:00,50.1,48.0,30.11,WNW,302,5.0,9.0,91,0.00,,,0.00,weatherlink.com 1.10,2013-09-15 08:42:00,
2013-09-15 04:57:00,49.9,47.0,30.11,West,278,8.0,12.0,91,0.00,,,0.00,weatherlink.com 1.10,2013-09-15 08:57:00,
2013-09-15 05:12:00,49.7,48.0,30.11,WNW,297,9.0,10.0,92,0.00,,,0.00,weatherlink.com 1.10,2013-09-15 09:12:00,
2013-09-15 05:27:00,49.3,47.0,30.11,WNW,284,5.0,10.0,92,0.00,,,0.00,weatherlink.com 1.10,2013-09-15 09:27:00,
2013-09-15 05:42:00,49.1,47.0,30.12,SSW,195,2.0,9.0,92,0.00,,,0.00,weatherlink.com 1.10,2013-09-15 09:42:00,
2013-09-15 05:57:00,48.7,47.0,30.12,WNW,283,4.0,9.0,92,0.00,,,0.00,weatherlink.com 1.10,2013-09-15 09:57:00,
2013-09-15 06:12:00,48.5,46.0,30.12,North,8,6.0,9.0,92,0.00,,,0.00,weatherlink.com 1.10,2013-09-15 10:12:00,
2013-09-15 06:27:00,48.4,46.0,30.14,NW,318,9.0,9.0,92,0.00,,,0.00,weatherlink.com 1.10,2013-09-15 10:27:00,
2013-09-15 06:43:00,48.9,46.0,30.14,West,262,7.0,11.0,91,0.00,,,0.00,weatherlink.com 1.10,2013-09-15 10:43:00,
2013-09-15 06:58:00,49.5,46.0,30.14,WNW,299,4.0,12.0,89,0.00,,,0.00,weatherlink.com 1.10,2013-09-15 10:58:00,
2013-09-15 07:13:00,50.4,47.0,30.15,NW,319,5.0,11.0,87,0.00,,,0.00,weatherlink.com 1.10,2013-09-15 11:13:00,
2013-09-15 07:28:00,51.2,47.0,30.15,SSW,211,7.0,10.0,86,0.00,,,0.00,weatherlink.com 1.10,2013-09-15 11:28:00,
2013-09-15 07:43:00,52.1,48.0,30.15,NW,309,4.0,10.0,85,0.00,,,0.00,weatherlink.com 1.10,2013-09-15 11:43:00,
2013-09-15 07:58:00,53.2,48.0,30.15,NW,323,3.0,9.0,83,0.00,,,0.00,weatherlink.com 1.10,2013-09-15 11:58:00,
2013-09-15 08:13:00,53.9,49.0,30.15,NW,311,3.0,9.0,82,0.00,,,0.00,weatherlink.com 1.10,2013-09-15 12:13:00,
2013-09-15 08:28:00,54.7,49.0,30.15,NW,312,4.0,8.0,81,0.00,,,0.00,weatherlink.com 1.10,2013-09-15 12:28:00,
2013-09-15 08:43:00,55.7,49.0,30.16,WNW,302,5.0,8.0,79,0.00,,,0.00,weatherlink.com 1.10,2013-09-15 12:43:00,
2013-09-15 08:58:00,56.8,50.0,30.16,NW,316,2.0,5.0,77,0.00,,,0.00,weatherlink.com 1.10,2013-09-15 12:58:00,
2013-09-15 09:13:00,57.3,50.0,30.17,NNE,23,4.0,6.0,76,0.00,,,0.00,weatherlink.com 1.10,2013-09-15 13:13:00,
2013-09-15 09:28:00,57.5,50.0,30.17,NE,34,4.0,5.0,76,0.00,,,0.00,weatherlink.com 1.10,2013-09-15 13:28:00,
2013-09-15 09:43:00,57.3,51.0,30.17,NE,49,5.0,5.0,79,0.00,,,0.00,weatherlink.com 1.10,2013-09-15 13:43:00,
2013-09-15 09:58:00,57.9,51.0,30.17,ENE,63,4.0,4.0,78,0.00,,,0.00,weatherlink.com 1.10,2013-09-15 13:58:00,
2013-09-15 10:13:00,58.7,51.0,30.17,ENE,75,4.0,6.0,76,0.00,,,0.00,weatherlink.com 1.10,2013-09-15 14:13:00,
2013-09-15 10:28:00,58.9,51.0,30.17,SE,144,3.0,4.0,75,0.00,,,0.00,weatherlink.com 1.10,2013-09-15 14:28:00,
2013-09-15 10:43:00,59.8,52.0,30.17,SE,144,6.0,8.0,74,0.00,,,0.00,weatherlink.com 1.10,2013-09-15 14:43:00,
2013-09-15 10:58:00,59.9,52.0,30.16,SSE,163,8.0,9.0,74,0.00,,,0.00,weatherlink.com 1.10,2013-09-15 14:58:00,
2013-09-15 11:13:00,59.0,51.0,30.16,SSE,149,7.0,9.0,76,0.00,,,0.00,weatherlink.com 1.10,2013-09-15 15:13:00,
2013-09-15 11:28:00,58.5,52.0,30.16,SE,135,6.0,8.0,79,0.00,,,0.00,weatherlink.com 1.10,2013-09-15 15:28:00,
2013-09-15 11:43:00,58.7,53.0,30.15,SSE,150,9.0,9.0,80,0.00,,,0.00,weatherlink.com 1.10,2013-09-15 15:43:00,
2013-09-15 11:58:00,60.3,53.0,30.15,SSW,210,7.0,10.0,76,0.00,,,0.00,weatherlink.com 1.10,2013-09-15 15:58:00,
2013-09-15 12:13:00,62.5,53.0,30.14,SSE,153,7.0,10.0,71,0.00,,,0.00,weatherlink.com 1.10,2013-09-15 16:13:00,
2013-09-15 12:28:00,62.0,52.0,30.14,SSE,153,7.0,15.0,69,0.00,,,0.00,weatherlink.com 1.10,2013-09-15 16:28:00,
2013-09-15 12:43:00,63.4,54.0,30.14,SSW,210,0.0,9.0,71,0.00,,,0.00,weatherlink.com 1.10,2013-09-15 16:43:00,
2013-09-15 12:58:00,63.4,54.0,30.14,SSW,198,12.0,13.0,72,0.00,,,0.00,weatherlink.com 1.10,2013-09-15 16:58:00,
2013-09-15 13:13:00,63.6,53.0,30.12,SSE,149,10.0,14.0,69,0.00,,,0.00,weatherlink.com 1.10,2013-09-15 17:13:00,
2013-09-15 13:28:00,63.2,54.0,30.12,WSW,253,7.0,15.0,71,0.00,,,0.00,weatherlink.com 1.10,2013-09-15 17:28:00,
2013-09-15 13:43:00,65.3,54.0,30.11,SSW,203,4.0,10.0,68,0.00,,,0.00,weatherlink.com 1.10,2013-09-15 17:43:00,
2013-09-15 13:58:00,65.9,53.0,30.11,SE,146,3.0,13.0,64,0.00,,,0.00,weatherlink.com 1.10,2013-09-15 17:58:00,
2013-09-15 14:13:00,64.7,54.0,30.11,SW,223,6.0,12.0,69,0.00,,,0.00,weatherlink.com 1.10,2013-09-15 18:13:00,
2013-09-15 14:28:00,66.5,55.0,30.10,SSE,155,1.0,8.0,67,0.00,,,0.00,weatherlink.com 1.10,2013-09-15 18:28:00,
2013-09-15 14:43:00,68.9,51.0,30.10,West,263,2.0,8.0,53,0.00,,,0.00,weatherlink.com 1.10,2013-09-15 18:43:00,
2013-09-15 14:58:00,69.4,50.0,30.09,NNE,25,1.0,8.0,51,0.00,,,0.00,weatherlink.com 1.10,2013-09-15 18:58:00,
2013-09-15 15:14:00,68.9,53.0,30.09,SSW,212,5.0,7.0,57,0.00,,,0.00,weatherlink.com 1.10,2013-09-15 19:14:00,
2013-09-15 15:29:00,69.7,51.0,30.08,NW,313,3.0,8.0,52,0.00,,,0.00,weatherlink.com 1.10,2013-09-15 19:29:00,
2013-09-15 15:44:00,70.4,50.0,30.08,SW,233,2.0,9.0,48,0.00,,,0.00,weatherlink.com 1.10,2013-09-15 19:44:00,
2013-09-15 15:59:00,69.7,49.0,30.07,NNW,336,3.0,7.0,48,0.00,,,0.00,weatherlink.com 1.10,2013-09-15 19:59:00,
2013-09-15 16:14:00,69.6,51.0,30.07,NNW,330,0.0,5.0,51,0.00,,,0.00,weatherlink.com 1.10,2013-09-15 20:14:00,
2013-09-15 16:29:00,70.8,49.0,30.07,SW,233,5.0,7.0,47,0.00,,,0.00,weatherlink.com 1.10,2013-09-15 20:29:00,
2013-09-15 16:44:00,70.9,50.0,30.07,West,267,0.0,7.0,48,0.00,,,0.00,weatherlink.com 1.10,2013-09-15 20:44:00,
2013-09-15 16:59:00,70.1,50.0,30.07,West,270,2.0,6.0,50,0.00,,,0.00,weatherlink.com 1.10,2013-09-15 20:59:00,
2013-09-15 17:14:00,69.4,51.0,30.07,West,274,2.0,5.0,53,0.00,,,0.00,weatherlink.com 1.10,2013-09-15 21:14:00,
2013-09-15 17:29:00,69.5,51.0,30.07,West,278,4.0,7.0,53,0.00,,,0.00,weatherlink.com 1.10,2013-09-15 21:29:00,
2013-09-15 17:44:00,67.6,51.0,30.07,South,176,2.0,5.0,55,0.00,,,0.00,weatherlink.com 1.10,2013-09-15 21:44:00,
2013-09-15 17:59:00,66.2,51.0,30.07,West,281,3.0,4.0,58,0.00,,,0.00,weatherlink.com 1.10,2013-09-15 21:59:00,
2013-09-15 18:14:00,64.9,51.0,30.07,SW,223,0.0,3.0,61,0.00,,,0.00,weatherlink.com 1.10,2013-09-15 22:14:00,
2013-09-15 18:29:00,63.8,51.0,30.07,SSE,159,2.0,3.0,64,0.00,,,0.00,weatherlink.com 1.10,2013-09-15 22:29:00,
2013-09-15 18:44:00,62.4,52.0,30.07,SW,217,3.0,3.0,69,0.00,,,0.00,weatherlink.com 1.10,2013-09-15 22:44:00,
2013-09-15 18:59:00,61.3,52.0,30.07,West,259,1.0,3.0,72,0.00,,,0.00,weatherlink.com 1.10,2013-09-15 22:59:00,
2013-09-15 19:14:00,60.3,52.0,30.07,WSW,248,0.0,1.0,74,0.00,,,0.00,weatherlink.com 1.10,2013-09-15 23:14:00,
2013-09-15 19:29:00,59.5,52.0,30.07,SW,217,0.0,3.0,76,0.00,,,0.00,weatherlink.com 1.10,2013-09-15 23:29:00,
2013-09-15 19:44:00,59.3,52.0,30.07,SW,216,0.0,2.0,77,0.00,,,0.00,weatherlink.com 1.10,2013-09-15 23:44:00,
2013-09-15 19:59:00,59.3,52.0,30.07,SSW,205,2.0,2.0,76,0.00,,,0.00,weatherlink.com 1.10,2013-09-15 23:59:00,
2013-09-15 20:14:00,58.8,52.0,30.07,SSW,212,2.0,3.0,78,0.00,,,0.00,weatherlink.com 1.10,2013-09-16 00:14:00,
2013-09-15 20:29:00,58.3,52.0,30.07,WSW,256,0.0,3.0,80,0.00,,,0.00,weatherlink.com 1.10,2013-09-16 00:29:00,
2013-09-15 20:44:00,58.0,52.0,30.07,WSW,257,0.0,3.0,80,0.00,,,0.00,weatherlink.com 1.10,2013-09-16 00:44:00,
2013-09-15 20:59:00,58.0,52.0,30.06,SW,214,2.0,4.0,80,0.00,,,0.00,weatherlink.com 1.10,2013-09-16 00:59:00,
2013-09-15 21:14:00,58.4,52.0,30.06,SW,231,4.0,4.0,79,0.00,,,0.00,weatherlink.com 1.10,2013-09-16 01:14:00,
2013-09-15 21:29:00,58.3,52.0,30.06,WSW,249,2.0,3.0,79,0.00,,,0.00,weatherlink.com 1.10,2013-09-16 01:29:00,
2013-09-15 21:44:00,58.5,52.0,30.06,SSW,195,0.0,3.0,79,0.00,,,0.00,weatherlink.com 1.10,2013-09-16 01:44:00,
2013-09-15 21:59:00,58.6,52.0,30.06,WSW,243,3.0,5.0,80,0.00,,,0.00,weatherlink.com 1.10,2013-09-16 01:59:00,
2013-09-15 22:14:00,58.6,52.0,30.07,NNW,328,3.0,6.0,80,0.00,,,0.00,weatherlink.com 1.10,2013-09-16 02:14:00,
2013-09-15 22:29:00,58.9,52.0,30.06,WSW,251,0.0,6.0,79,0.00,,,0.00,weatherlink.com 1.10,2013-09-16 02:29:00,
2013-09-15 22:44:00,59.2,53.0,30.06,NNW,332,1.0,5.0,79,0.00,,,0.00,weatherlink.com 1.10,2013-09-16 02:44:00,
2013-09-15 22:59:00,59.1,53.0,30.06,NW,307,3.0,5.0,80,0.00,,,0.00,weatherlink.com 1.10,2013-09-16 02:59:00,
2013-09-15 23:14:00,59.0,53.0,30.06,WNW,290,1.0,5.0,80,0.00,,,0.00,weatherlink.com 1.10,2013-09-16 03:14:00,
2013-09-15 23:29:00,58.7,53.0,30.06,North,351,0.0,5.0,81,0.00,,,0.00,weatherlink.com 1.10,2013-09-16 03:29:00,
2013-09-15 23:44:00,58.5,53.0,30.05,NW,309,0.0,4.0,82,0.00,,,0.00,weatherlink.com 1.10,2013-09-16 03:44:00,
2013-09-15 23:59:00,58.1,53.0,30.04,West,276,1.0,5.0,83,0.00,,,0.00,weatherlink.com 1.10,2013-09-16 03:59:00,